,,Stat6,,Stat2,,Stat8,,Stat9,,Stat10,,Wind1,,Wind1
time,status,PA1M_AVG,status,PR1M_SUM,status,RH1M_AVG,status,SR1M_AVG,status,TA1M_AVG,status,W1dAve1m,status,W1sAve1m
2009-03-21, 00:00:00,VALID,917.29,VALID,0,VALID,100,VALID,0,VALID,20.4726,VALID,333,VALID,0
2009-03-21, 00:01:00,VALID,917.278,VALID,0,VALID,100,VALID,0.0169808,VALID,20.4594,VALID,24,VALID,0
2009-03-21, 00:02:00,VALID,917.268,VALID,0,VALID,100,VALID,0,VALID,20.4137,VALID,28,VALID,0
2009-03-21, 00:03:00,VALID,917.272,VALID,0,VALID,100,VALID,0,VALID,20.378,VALID,34,VALID,0.00223214
2009-03-21, 00:04:00,VALID,917.263,VALID,0,VALID,100,VALID,0.0169808,VALID,20.3488,VALID,23,VALID,0
2009-03-21, 00:05:00,VALID,917.276,VALID,0,VALID,100,VALID,0,VALID,20.3431,VALID,16,VALID,0
2009-03-21, 00:06:00,VALID,917.267,VALID,0,VALID,100,VALID,0,VALID,20.3496,VALID,18,VALID,0
2009-03-21, 00:07:00,VALID,917.253,VALID,0,VALID,100,VALID,0.0169808,VALID,20.3555,VALID,297,VALID,0
2009-03-21, 00:08:00,VALID,917.245,VALID,0,VALID,100,VALID,0,VALID,20.3618,VALID,274,VALID,0
2009-03-21, 00:09:00,VALID,917.23,VALID,0,VALID,100,VALID,-0.0169808,VALID,20.3753,VALID,277,VALID,0
2009-03-21, 00:10:00,VALID,917.218,VALID,0,VALID,100,VALID,0,VALID,20.3231,VALID,354,VALID,0
2009-03-21, 00:11:00,VALID,917.215,VALID,0,VALID,100,VALID,0.0339617,VALID,20.3163,VALID,354,VALID,0
2009-03-21, 00:12:00,VALID,917.198,VALID,0,VALID,100,VALID,0,VALID,20.3263,VALID,354,VALID,0
2009-03-21, 00:13:00,VALID,917.19,VALID,0,VALID,100,VALID,0,VALID,20.3134,VALID,2,VALID,0
2009-03-21, 00:14:00,VALID,917.192,VALID,0,VALID,100,VALID,0,VALID,20.3028,VALID,7,VALID,0
2009-03-21, 00:15:00,VALID,917.188,VALID,0,VALID,100,VALID,0,VALID,20.2869,VALID,7,VALID,0
2009-03-21, 00:16:00,VALID,917.186,VALID,0,VALID,100,VALID,0,VALID,20.3036,VALID,7,VALID,0
2009-03-21, 00:17:00,VALID,917.182,VALID,0,VALID,100,VALID,0,VALID,20.3036,VALID,23,VALID,0
2009-03-21, 00:18:00,VALID,917.195,VALID,0,VALID,100,VALID,0,VALID,20.3064,VALID,39,VALID,0.00351562
2009-03-21, 00:19:00,VALID,917.19,VALID,0,VALID,100,VALID,-0.0169808,VALID,20.3261,VALID,38,VALID,0
2009-03-21, 00:20:00,VALID,917.2,VALID,0,VALID,100,VALID,0,VALID,20.3263,VALID,34,VALID,0
2009-03-21, 00:21:00,VALID,917.213,VALID,0,VALID,100,VALID,0,VALID,20.2999,VALID,25,VALID,0
2009-03-21, 00:22:00,VALID,917.208,VALID,0,VALID,100,VALID,0.0169808,VALID,20.2782,VALID,19,VALID,0
2009-03-21, 00:23:00,VALID,917.213,VALID,0,VALID,100,VALID,-0.0509425,VALID,20.239,VALID,12,VALID,0
2009-03-21, 00:24:00,VALID,917.213,VALID,0,VALID,100,VALID,-0.101885,VALID,20.204,VALID,16,VALID,0
2009-03-21, 00:25:00,VALID,917.214,VALID,0,VALID,100,VALID,-0.118866,VALID,20.1686,VALID,2,VALID,0.146701
2009-03-21, 00:26:00,VALID,917.192,VALID,0,VALID,100,VALID,-0.118866,VALID,20.1291,VALID,5,VALID,0.0403646
2009-03-21, 00:27:00,VALID,917.173,VALID,0,VALID,100,VALID,-0.101885,VALID,20.1034,VALID,12,VALID,0.104102
2009-03-21, 00:28:00,VALID,917.174,VALID,0,VALID,100,VALID,-0.118866,VALID,20.087,VALID,11,VALID,0.0232422
2009-03-21, 00:29:00,VALID,917.196,VALID,0,VALID,100,VALID,-0.101885,VALID,20.084,VALID,347,VALID,0.0734012
2009-03-21, 00:30:00,VALID,917.193,VALID,0,VALID,100,VALID,-0.101885,VALID,20.1007,VALID,304,VALID,0.00581395
2009-03-21, 00:31:00,VALID,917.176,VALID,0,VALID,100,VALID,-0.101885,VALID,20.1104,VALID,13,VALID,0
2009-03-21, 00:32:00,VALID,917.152,VALID,0,VALID,100,VALID,-0.0849042,VALID,20.1227,VALID,16,VALID,0.000520833
2009-03-21, 00:33:00,VALID,917.169,VALID,0,VALID,100,VALID,-0.101885,VALID,20.1364,VALID,1,VALID,0.00508721
2009-03-21, 00:34:00,VALID,917.165,VALID,0,VALID,100,VALID,-0.101885,VALID,20.1134,VALID,339,VALID,0.15067
2009-03-21, 00:35:00,VALID,917.177,VALID,0,VALID,100,VALID,-0.118866,VALID,20.1431,VALID,313,VALID,0
2009-03-21, 00:36:00,VALID,917.18,VALID,0,VALID,100,VALID,-0.101885,VALID,20.1521,VALID,297,VALID,0
2009-03-21, 00:37:00,VALID,917.181,VALID,0,VALID,100,VALID,-0.101885,VALID,20.1556,VALID,296,VALID,0
2009-03-21, 00:38:00,VALID,917.168,VALID,0,VALID,100,VALID,-0.0509425,VALID,20.1546,VALID,310,VALID,0
2009-03-21, 00:39:00,VALID,917.155,VALID,0,VALID,100,VALID,0,VALID,20.1603,VALID,345,VALID,0
2009-03-21, 00:40:00,VALID,917.138,VALID,0,VALID,100,VALID,0.0169808,VALID,20.1541,VALID,345,VALID,0
2009-03-21, 00:41:00,VALID,917.14,VALID,0,VALID,100,VALID,-0.0169808,VALID,20.1441,VALID,345,VALID,0
2009-03-21, 00:42:00,VALID,917.147,VALID,0,VALID,100,VALID,0,VALID,20.1571,VALID,345,VALID,0
2009-03-21, 00:43:00,VALID,917.158,VALID,0,VALID,100,VALID,0,VALID,20.1771,VALID,345,VALID,0
2009-03-21, 00:44:00,VALID,917.16,VALID,0,VALID,100,VALID,0,VALID,20.1933,VALID,345,VALID,0
2009-03-21, 00:45:00,VALID,917.176,VALID,0,VALID,100,VALID,-0.0339617,VALID,20.18,VALID,322,VALID,0
2009-03-21, 00:46:00,VALID,917.185,VALID,0,VALID,100,VALID,0,VALID,20.1668,VALID,306,VALID,0
2009-03-21, 00:47:00,VALID,917.174,VALID,0,VALID,100,VALID,0.0169808,VALID,20.1636,VALID,306,VALID,0
2009-03-21, 00:48:00,VALID,917.181,VALID,0,VALID,100,VALID,-0.0169808,VALID,20.1768,VALID,306,VALID,0
2009-03-21, 00:49:00,VALID,917.176,VALID,0,VALID,100,VALID,0,VALID,20.1765,VALID,306,VALID,0
2009-03-21, 00:50:00,VALID,917.177,VALID,0,VALID,100,VALID,0,VALID,20.1633,VALID,306,VALID,0
2009-03-21, 00:51:00,VALID,917.162,VALID,0,VALID,100,VALID,0,VALID,20.1671,VALID,306,VALID,0
2009-03-21, 00:52:00,VALID,917.171,VALID,0,VALID,100,VALID,-0.0339617,VALID,20.1506,VALID,305,VALID,0
2009-03-21, 00:53:00,VALID,917.188,VALID,0,VALID,100,VALID,0,VALID,20.1449,VALID,304,VALID,0
2009-03-21, 00:54:00,VALID,917.179,VALID,0,VALID,100,VALID,-0.0339617,VALID,20.1314,VALID,253,VALID,0
2009-03-21, 00:55:00,VALID,917.165,VALID,0,VALID,100,VALID,-0.0679233,VALID,20.1289,VALID,239,VALID,0
2009-03-21, 00:56:00,VALID,917.165,VALID,0,VALID,100,VALID,-0.0509425,VALID,20.1157,VALID,239,VALID,0
2009-03-21, 00:57:00,VALID,917.172,VALID,0,VALID,100,VALID,-0.0509425,VALID,20.0702,VALID,239,VALID,0
2009-03-21, 00:58:00,VALID,917.176,VALID,0,VALID,100,VALID,0,VALID,20.0765,VALID,239,VALID,0
2009-03-21, 00:59:00,VALID,917.176,VALID,0,VALID,100,VALID,0,VALID,20.0567,VALID,244,VALID,0
2009-03-21, 01:00:00,VALID,917.168,VALID,0,VALID,100,VALID,0,VALID,20.0535,VALID,299,VALID,0
2009-03-21, 01:01:00,VALID,917.143,VALID,0,VALID,100,VALID,-0.0169808,VALID,20.0602,VALID,352,VALID,0
2009-03-21, 01:02:00,VALID,917.114,VALID,0,VALID,100,VALID,-0.0509425,VALID,20.0632,VALID,7,VALID,0.0486919
2009-03-21, 01:03:00,VALID,917.111,VALID,0,VALID,100,VALID,0,VALID,20.0572,VALID,9,VALID,0
2009-03-21, 01:04:00,VALID,917.102,VALID,0,VALID,100,VALID,-0.0169808,VALID,20.0278,VALID,14,VALID,0
2009-03-21, 01:05:00,VALID,917.109,VALID,0,VALID,100,VALID,-0.0339617,VALID,20.0175,VALID,25,VALID,0
2009-03-21, 01:06:00,VALID,917.108,VALID,0,VALID,100,VALID,0,VALID,20.0375,VALID,323,VALID,0
2009-03-21, 01:07:00,VALID,917.102,VALID,0,VALID,100,VALID,0,VALID,20.0438,VALID,300,VALID,0
2009-03-21, 01:08:00,VALID,917.067,VALID,0,VALID,100,VALID,-0.0339617,VALID,20.0597,VALID,301,VALID,0
2009-03-21, 01:09:00,VALID,917.056,VALID,0,VALID,100,VALID,0,VALID,20.073,VALID,301,VALID,0
2009-03-21, 01:10:00,VALID,917.034,VALID,0,VALID,100,VALID,0.0169808,VALID,20.053,VALID,314,VALID,0
2009-03-21, 01:11:00,VALID,917.035,VALID,0,VALID,100,VALID,0.0169808,VALID,20.0535,VALID,31,VALID,0.0577762
2009-03-21, 01:12:00,VALID,917.035,VALID,0,VALID,100,VALID,-0.0169808,VALID,20.044,VALID,28,VALID,0.000726744
2009-03-21, 01:13:00,VALID,917.055,VALID,0,VALID,100,VALID,0,VALID,20.0111,VALID,10,VALID,0.0513139
2009-03-21, 01:14:00,VALID,917.063,VALID,0,VALID,100,VALID,0.0169808,VALID,19.9851,VALID,8,VALID,0
2009-03-21, 01:15:00,VALID,917.047,VALID,0,VALID,100,VALID,0,VALID,19.9816,VALID,7,VALID,0
2009-03-21, 01:16:00,VALID,917.033,VALID,0,VALID,100,VALID,0,VALID,19.9918,VALID,268,VALID,0
2009-03-21, 01:17:00,VALID,917.006,VALID,0,VALID,100,VALID,0,VALID,20.0151,VALID,241,VALID,0
2009-03-21, 01:18:00,VALID,916.961,VALID,0,VALID,100,VALID,0.0169808,VALID,20.0373,VALID,241,VALID,0
2009-03-21, 01:19:00,VALID,916.949,VALID,0,VALID,100,VALID,0,VALID,20.0432,VALID,241,VALID,0
2009-03-21, 01:20:00,VALID,916.928,VALID,0,VALID,100,VALID,0.0509425,VALID,20.0565,VALID,241,VALID,0
2009-03-21, 01:21:00,VALID,916.916,VALID,0,VALID,100,VALID,0.0169808,VALID,20.0567,VALID,241,VALID,0
2009-03-21, 01:22:00,VALID,916.888,VALID,0,VALID,100,VALID,0,VALID,20.043,VALID,255,VALID,0
2009-03-21, 01:23:00,VALID,916.869,VALID,0,VALID,100,VALID,-0.0509425,VALID,20.0537,VALID,320,VALID,0
2009-03-21, 01:24:00,VALID,916.867,VALID,0,VALID,100,VALID,-0.101885,VALID,20.0385,VALID,2,VALID,0
2009-03-21, 01:25:00,VALID,916.885,VALID,0,VALID,100,VALID,-0.101885,VALID,20.0186,VALID,4,VALID,0
2009-03-21, 01:26:00,VALID,916.874,VALID,0,VALID,100,VALID,-0.0849042,VALID,19.9998,VALID,354,VALID,0
2009-03-21, 01:27:00,VALID,916.864,VALID,0,VALID,100,VALID,-0.101885,VALID,19.9769,VALID,339,VALID,0
2009-03-21, 01:28:00,VALID,916.852,VALID,0,VALID,100,VALID,-0.0849042,VALID,19.9963,VALID,340,VALID,0
2009-03-21, 01:29:00,VALID,916.869,VALID,0,VALID,100,VALID,-0.0849042,VALID,20.0158,VALID,340,VALID,0
2009-03-21, 01:30:00,VALID,916.874,VALID,0,VALID,100,VALID,-0.0679233,VALID,20.0156,VALID,340,VALID,0
2009-03-21, 01:31:00,VALID,916.841,VALID,0,VALID,100,VALID,-0.0849042,VALID,20.0156,VALID,339,VALID,0
2009-03-21, 01:32:00,VALID,916.825,VALID,0,VALID,100,VALID,-0.0849042,VALID,20.0123,VALID,339,VALID,0
2009-03-21, 01:33:00,VALID,916.807,VALID,0,VALID,100,VALID,-0.101885,VALID,20.0123,VALID,340,VALID,0
2009-03-21, 01:34:00,VALID,916.789,VALID,0,VALID,100,VALID,-0.0679233,VALID,19.9993,VALID,339,VALID,0
2009-03-21, 01:35:00,VALID,916.767,VALID,0,VALID,100,VALID,-0.0509425,VALID,19.9474,VALID,344,VALID,0
2009-03-21, 01:36:00,VALID,916.752,VALID,0,VALID,100,VALID,-0.0679233,VALID,19.892,VALID,346,VALID,0
2009-03-21, 01:37:00,VALID,916.755,VALID,0,VALID,100,VALID,-0.0679233,VALID,19.8825,VALID,346,VALID,0
2009-03-21, 01:38:00,VALID,916.753,VALID,0,VALID,100,VALID,-0.0679233,VALID,19.8893,VALID,346,VALID,0
2009-03-21, 01:39:00,VALID,916.742,VALID,0,VALID,100,VALID,-0.0679233,VALID,19.8858,VALID,346,VALID,0
2009-03-21, 01:40:00,VALID,916.738,VALID,0,VALID,100,VALID,-0.101885,VALID,19.876,VALID,346,VALID,0
2009-03-21, 01:41:00,VALID,916.733,VALID,0,VALID,100,VALID,-0.0849042,VALID,19.876,VALID,341,VALID,0
2009-03-21, 01:42:00,VALID,916.731,VALID,0,VALID,100,VALID,-0.0849042,VALID,19.8728,VALID,323,VALID,0
2009-03-21, 01:43:00,VALID,916.722,VALID,0,VALID,100,VALID,-0.101885,VALID,19.8728,VALID,323,VALID,0
2009-03-21, 01:44:00,VALID,916.709,VALID,0,VALID,100,VALID,-0.0849042,VALID,19.8403,VALID,323,VALID,0
2009-03-21, 01:45:00,VALID,916.703,VALID,0,VALID,100,VALID,-0.101885,VALID,19.7819,VALID,323,VALID,0
2009-03-21, 01:46:00,VALID,916.708,VALID,0,VALID,100,VALID,-0.101885,VALID,19.7689,VALID,323,VALID,0
2009-03-21, 01:47:00,VALID,916.724,VALID,0,VALID,100,VALID,-0.101885,VALID,19.7597,VALID,323,VALID,0
2009-03-21, 01:48:00,VALID,916.713,VALID,0,VALID,100,VALID,-0.0679233,VALID,19.7659,VALID,323,VALID,0
2009-03-21, 01:49:00,VALID,916.696,VALID,0,VALID,100,VALID,-0.0679233,VALID,19.7462,VALID,360,VALID,0
2009-03-21, 01:50:00,VALID,916.696,VALID,0,VALID,100,VALID,-0.0509425,VALID,19.707,VALID,4,VALID,0
2009-03-21, 01:51:00,VALID,916.678,VALID,0,VALID,100,VALID,-0.0849042,VALID,19.6976,VALID,4,VALID,0
2009-03-21, 01:52:00,VALID,916.657,VALID,0,VALID,100,VALID,-0.0339617,VALID,19.7235,VALID,4,VALID,0
2009-03-21, 01:53:00,VALID,916.662,VALID,0,VALID,100,VALID,-0.0849042,VALID,19.7006,VALID,4,VALID,0
2009-03-21, 01:54:00,VALID,916.677,VALID,0,VALID,100,VALID,-0.0679233,VALID,19.7203,VALID,4,VALID,0
2009-03-21, 01:55:00,VALID,916.653,VALID,0,VALID,100,VALID,-0.0679233,VALID,19.746,VALID,4,VALID,0
2009-03-21, 01:56:00,VALID,916.633,VALID,0,VALID,100,VALID,0,VALID,19.7832,VALID,340,VALID,0
2009-03-21, 01:57:00,VALID,916.615,VALID,0,VALID,100,VALID,0.0339617,VALID,19.8226,VALID,324,VALID,0
2009-03-21, 01:58:00,VALID,916.605,VALID,0,VALID,100,VALID,0.0509425,VALID,19.8194,VALID,360,VALID,0
2009-03-21, 01:59:00,VALID,916.611,VALID,0,VALID,100,VALID,-0.0169808,VALID,19.8029,VALID,3,VALID,0
2009-03-21, 02:00:00,VALID,916.631,VALID,0,VALID,100,VALID,0.0339617,VALID,19.7867,VALID,3,VALID,0
2009-03-21, 02:01:00,VALID,916.64,VALID,0,VALID,100,VALID,0.0169808,VALID,19.7996,VALID,359,VALID,0
2009-03-21, 02:02:00,VALID,916.648,VALID,0,VALID,100,VALID,0,VALID,19.8258,VALID,359,VALID,0
2009-03-21, 02:03:00,VALID,916.659,VALID,0,VALID,100,VALID,0.0169808,VALID,19.8356,VALID,359,VALID,0
2009-03-21, 02:04:00,VALID,916.655,VALID,0,VALID,100,VALID,0,VALID,19.8486,VALID,359,VALID,0
2009-03-21, 02:05:00,VALID,916.63,VALID,0,VALID,100,VALID,0.0509425,VALID,19.8486,VALID,359,VALID,0
2009-03-21, 02:06:00,VALID,916.6,VALID,0,VALID,100,VALID,0.0169808,VALID,19.8288,VALID,359,VALID,0
2009-03-21, 02:07:00,VALID,916.606,VALID,0,VALID,100,VALID,0.0339617,VALID,19.8518,VALID,359,VALID,0
2009-03-21, 02:08:00,VALID,916.61,VALID,0,VALID,100,VALID,-0.0339617,VALID,19.8461,VALID,359,VALID,0
2009-03-21, 02:09:00,VALID,916.581,VALID,0,VALID,100,VALID,-0.0509425,VALID,19.8298,VALID,4,VALID,0
2009-03-21, 02:10:00,VALID,916.572,VALID,0,VALID,100,VALID,-0.0679233,VALID,19.7976,VALID,4,VALID,0
2009-03-21, 02:11:00,VALID,916.56,VALID,0,VALID,100,VALID,-0.0679233,VALID,19.7979,VALID,4,VALID,0
2009-03-21, 02:12:00,VALID,916.539,VALID,0,VALID,100,VALID,-0.0849042,VALID,19.8109,VALID,4,VALID,0
2009-03-21, 02:13:00,VALID,916.513,VALID,0,VALID,100,VALID,-0.101885,VALID,19.7979,VALID,4,VALID,0
2009-03-21, 02:14:00,VALID,916.503,VALID,0,VALID,100,VALID,-0.0679233,VALID,19.7754,VALID,20,VALID,0
2009-03-21, 02:15:00,VALID,916.494,VALID,0,VALID,100,VALID,-0.0339617,VALID,19.7649,VALID,23,VALID,0
2009-03-21, 02:16:00,VALID,916.497,VALID,0,VALID,100,VALID,-0.0339617,VALID,19.7717,VALID,23,VALID,0
2009-03-21, 02:17:00,VALID,916.489,VALID,0,VALID,100,VALID,-0.0679233,VALID,19.7914,VALID,23,VALID,0
2009-03-21, 02:18:00,VALID,916.5,VALID,0,VALID,100,VALID,-0.0679233,VALID,19.7849,VALID,23,VALID,0
2009-03-21, 02:19:00,VALID,916.49,VALID,0,VALID,100,VALID,-0.0339617,VALID,19.7914,VALID,23,VALID,0
2009-03-21, 02:20:00,VALID,916.476,VALID,0,VALID,100,VALID,-0.0509425,VALID,19.7979,VALID,23,VALID,0
2009-03-21, 02:21:00,VALID,916.449,VALID,0,VALID,100,VALID,-0.0849042,VALID,19.7814,VALID,21,VALID,0
2009-03-21, 02:22:00,VALID,916.427,VALID,0,VALID,100,VALID,-0.0679233,VALID,19.7268,VALID,39,VALID,0
2009-03-21, 02:23:00,VALID,916.429,VALID,0,VALID,100,VALID,-0.0169808,VALID,19.6933,VALID,41,VALID,0
2009-03-21, 02:24:00,VALID,916.449,VALID,0,VALID,100,VALID,-0.0509425,VALID,19.6943,VALID,38,VALID,0
2009-03-21, 02:25:00,VALID,916.453,VALID,0,VALID,100,VALID,-0.0339617,VALID,19.6938,VALID,38,VALID,0
2009-03-21, 02:26:00,VALID,916.44,VALID,0,VALID,100,VALID,-0.0679233,VALID,19.6906,VALID,38,VALID,0
2009-03-21, 02:27:00,VALID,916.426,VALID,0,VALID,100,VALID,-0.0679233,VALID,19.6903,VALID,38,VALID,0
2009-03-21, 02:28:00,VALID,916.4,VALID,0,VALID,100,VALID,-0.0509425,VALID,19.7008,VALID,38,VALID,0
2009-03-21, 02:29:00,VALID,916.39,VALID,0,VALID,100,VALID,-0.0679233,VALID,19.6776,VALID,32,VALID,0
2009-03-21, 02:30:00,VALID,916.394,VALID,0,VALID,100,VALID,-0.0339617,VALID,19.6586,VALID,29,VALID,0
2009-03-21, 02:31:00,VALID,916.421,VALID,0,VALID,100,VALID,-0.0679233,VALID,19.6324,VALID,29,VALID,0
2009-03-21, 02:32:00,VALID,916.426,VALID,0,VALID,100,VALID,-0.0679233,VALID,19.6262,VALID,29,VALID,0
2009-03-21, 02:33:00,VALID,916.443,VALID,0,VALID,100,VALID,-0.0849042,VALID,19.6229,VALID,29,VALID,0
2009-03-21, 02:34:00,VALID,916.441,VALID,0,VALID,100,VALID,-0.0679233,VALID,19.6297,VALID,29,VALID,0
2009-03-21, 02:35:00,VALID,916.439,VALID,0,VALID,100,VALID,-0.0509425,VALID,19.6289,VALID,34,VALID,0
2009-03-21, 02:36:00,VALID,916.446,VALID,0,VALID,100,VALID,-0.101885,VALID,19.6454,VALID,35,VALID,0
2009-03-21, 02:37:00,VALID,916.452,VALID,0,VALID,100,VALID,-0.101885,VALID,19.6554,VALID,35,VALID,0
2009-03-21, 02:38:00,VALID,916.461,VALID,0,VALID,100,VALID,-0.0849042,VALID,19.6684,VALID,35,VALID,0
2009-03-21, 02:39:00,VALID,916.481,VALID,0,VALID,100,VALID,-0.101885,VALID,19.6614,VALID,35,VALID,0
2009-03-21, 02:40:00,VALID,916.459,VALID,0,VALID,100,VALID,-0.0679233,VALID,19.6813,VALID,35,VALID,0
2009-03-21, 02:41:00,VALID,916.443,VALID,0,VALID,100,VALID,-0.101885,VALID,19.7006,VALID,35,VALID,0
2009-03-21, 02:42:00,VALID,916.453,VALID,0,VALID,100,VALID,-0.0849042,VALID,19.717,VALID,35,VALID,0
2009-03-21, 02:43:00,VALID,916.441,VALID,0,VALID,100,VALID,-0.0849042,VALID,19.7268,VALID,35,VALID,0
2009-03-21, 02:44:00,VALID,916.452,VALID,0,VALID,100,VALID,-0.0679233,VALID,19.7203,VALID,47,VALID,0
2009-03-21, 02:45:00,VALID,916.431,VALID,0,VALID,100,VALID,-0.0849042,VALID,19.7103,VALID,61,VALID,0.0656622
2009-03-21, 02:46:00,VALID,916.45,VALID,0,VALID,100,VALID,-0.0509425,VALID,19.6741,VALID,30,VALID,0
2009-03-21, 02:47:00,VALID,916.438,VALID,0,VALID,100,VALID,-0.0849042,VALID,19.6681,VALID,40,VALID,0.0012429
2009-03-21, 02:48:00,VALID,916.432,VALID,0,VALID,100,VALID,-0.0679233,VALID,19.6876,VALID,36,VALID,0
2009-03-21, 02:49:00,VALID,916.433,VALID,0,VALID,100,VALID,-0.0849042,VALID,19.7265,VALID,39,VALID,0
2009-03-21, 02:50:00,VALID,916.436,VALID,0,VALID,100,VALID,-0.0509425,VALID,19.746,VALID,27,VALID,0
2009-03-21, 02:51:00,VALID,916.44,VALID,0,VALID,100,VALID,-0.0509425,VALID,19.7527,VALID,30,VALID,0
2009-03-21, 02:52:00,VALID,916.436,VALID,0,VALID,100,VALID,-0.0849042,VALID,19.7657,VALID,39,VALID,0
2009-03-21, 02:53:00,VALID,916.435,VALID,0,VALID,100,VALID,-0.101885,VALID,19.7852,VALID,39,VALID,0
2009-03-21, 02:54:00,VALID,916.421,VALID,0,VALID,100,VALID,-0.101885,VALID,19.8079,VALID,39,VALID,0
2009-03-21, 02:55:00,VALID,916.412,VALID,0,VALID,100,VALID,-0.0849042,VALID,19.8241,VALID,39,VALID,0
2009-03-21, 02:56:00,VALID,916.396,VALID,0,VALID,100,VALID,-0.0849042,VALID,19.8566,VALID,46,VALID,0
2009-03-21, 02:57:00,VALID,916.397,VALID,0,VALID,100,VALID,-0.101885,VALID,19.8728,VALID,42,VALID,0
2009-03-21, 02:58:00,VALID,916.393,VALID,0,VALID,100,VALID,-0.0679233,VALID,19.8825,VALID,41,VALID,0
2009-03-21, 02:59:00,VALID,916.379,VALID,0,VALID,100,VALID,-0.0849042,VALID,19.8723,VALID,40,VALID,0
2009-03-21, 03:00:00,VALID,916.359,VALID,0,VALID,100,VALID,-0.118866,VALID,19.8625,VALID,41,VALID,0
2009-03-21, 03:01:00,VALID,916.35,VALID,0,VALID,100,VALID,-0.135847,VALID,19.8533,VALID,45,VALID,0
2009-03-21, 03:02:00,VALID,916.338,VALID,0,VALID,100,VALID,-0.101885,VALID,19.8693,VALID,22,VALID,0
2009-03-21, 03:03:00,VALID,916.326,VALID,0,VALID,100,VALID,-0.0849042,VALID,19.8725,VALID,18,VALID,0
2009-03-21, 03:04:00,VALID,916.301,VALID,0,VALID,100,VALID,-0.118866,VALID,19.8987,VALID,23,VALID,0
2009-03-21, 03:05:00,VALID,916.298,VALID,0,VALID,100,VALID,-0.0679233,VALID,19.9112,VALID,29,VALID,0
2009-03-21, 03:06:00,VALID,916.31,VALID,0,VALID,100,VALID,-0.0849042,VALID,19.9047,VALID,23,VALID,0
2009-03-21, 03:07:00,VALID,916.306,VALID,0,VALID,100,VALID,-0.101885,VALID,19.915,VALID,22,VALID,0
2009-03-21, 03:08:00,VALID,916.273,VALID,0,VALID,100,VALID,-0.101885,VALID,19.9115,VALID,22,VALID,0
2009-03-21, 03:09:00,VALID,916.261,VALID,0,VALID,100,VALID,-0.101885,VALID,19.9085,VALID,25,VALID,0
2009-03-21, 03:10:00,VALID,916.263,VALID,0,VALID,100,VALID,-0.0679233,VALID,19.9279,VALID,26,VALID,0
2009-03-21, 03:11:00,VALID,916.262,VALID,0,VALID,100,VALID,-0.101885,VALID,19.9409,VALID,26,VALID,0
2009-03-21, 03:12:00,VALID,916.273,VALID,0,VALID,100,VALID,-0.118866,VALID,19.9377,VALID,28,VALID,0
2009-03-21, 03:13:00,VALID,916.285,VALID,0,VALID,100,VALID,-0.101885,VALID,19.9542,VALID,56,VALID,0
2009-03-21, 03:14:00,VALID,916.3,VALID,0,VALID,100,VALID,-0.101885,VALID,19.9507,VALID,56,VALID,0
2009-03-21, 03:15:00,VALID,916.297,VALID,0,VALID,100,VALID,-0.0849042,VALID,19.9504,VALID,57,VALID,0
2009-03-21, 03:16:00,VALID,916.293,VALID,0,VALID,100,VALID,-0.101885,VALID,19.9669,VALID,57,VALID,0
2009-03-21, 03:17:00,VALID,916.292,VALID,0,VALID,100,VALID,-0.101885,VALID,19.9729,VALID,57,VALID,0
2009-03-21, 03:18:00,VALID,916.281,VALID,0,VALID,100,VALID,-0.101885,VALID,19.9761,VALID,57,VALID,0
2009-03-21, 03:19:00,VALID,916.271,VALID,0,VALID,100,VALID,-0.118866,VALID,19.9636,VALID,57,VALID,0
2009-03-21, 03:20:00,VALID,916.269,VALID,0,VALID,100,VALID,-0.0679233,VALID,19.9374,VALID,57,VALID,0
2009-03-21, 03:21:00,VALID,916.27,VALID,0,VALID,100,VALID,-0.101885,VALID,19.9215,VALID,56,VALID,0
2009-03-21, 03:22:00,VALID,916.269,VALID,0,VALID,100,VALID,-0.118866,VALID,19.9117,VALID,55,VALID,0
2009-03-21, 03:23:00,VALID,916.25,VALID,0,VALID,100,VALID,-0.0509425,VALID,19.9175,VALID,55,VALID,0
2009-03-21, 03:24:00,VALID,916.238,VALID,0,VALID,100,VALID,0.0169808,VALID,19.9197,VALID,55,VALID,0
2009-03-21, 03:25:00,VALID,916.236,VALID,0,VALID,100,VALID,0.0169808,VALID,19.9197,VALID,52,VALID,0
2009-03-21, 03:26:00,VALID,916.25,VALID,0,VALID,100,VALID,-0.0169808,VALID,19.917,VALID,32,VALID,0
2009-03-21, 03:27:00,VALID,916.258,VALID,0,VALID,100,VALID,0.0169808,VALID,19.9102,VALID,25,VALID,0
2009-03-21, 03:28:00,VALID,916.278,VALID,0,VALID,100,VALID,0,VALID,19.8972,VALID,22,VALID,0
2009-03-21, 03:29:00,VALID,916.267,VALID,0,VALID,100,VALID,-0.0169808,VALID,19.9072,VALID,31,VALID,0
2009-03-21, 03:30:00,VALID,916.258,VALID,0,VALID,100,VALID,0,VALID,19.9097,VALID,29,VALID,0.0872713
2009-03-21, 03:31:00,VALID,916.251,VALID,0,VALID,100,VALID,0,VALID,19.9494,VALID,26,VALID,0.335379
2009-03-21, 03:32:00,VALID,916.25,VALID,0,VALID,100,VALID,0,VALID,19.9649,VALID,28,VALID,0.457667
2009-03-21, 03:33:00,VALID,916.228,VALID,0,VALID,100,VALID,0,VALID,19.9878,VALID,24,VALID,0.104403
2009-03-21, 03:34:00,VALID,916.233,VALID,0,VALID,100,VALID,0,VALID,20.0108,VALID,25,VALID,0
2009-03-21, 03:35:00,VALID,916.257,VALID,0,VALID,100,VALID,0.0169808,VALID,20.0268,VALID,35,VALID,0.132999
2009-03-21, 03:36:00,VALID,916.279,VALID,0,VALID,100,VALID,-0.0169808,VALID,20.0268,VALID,31,VALID,0.0559896
2009-03-21, 03:37:00,VALID,916.274,VALID,0,VALID,100,VALID,0.0339617,VALID,20.0368,VALID,33,VALID,0
2009-03-21, 03:38:00,VALID,916.275,VALID,0,VALID,100,VALID,-0.0339617,VALID,20.0373,VALID,37,VALID,0
2009-03-21, 03:39:00,VALID,916.284,VALID,0,VALID,100,VALID,-0.118866,VALID,20.0285,VALID,37,VALID,0
2009-03-21, 03:40:00,VALID,916.272,VALID,0,VALID,100,VALID,-0.135847,VALID,20.0161,VALID,37,VALID,0
2009-03-21, 03:41:00,VALID,916.273,VALID,0,VALID,100,VALID,-0.118866,VALID,20.0061,VALID,37,VALID,0
2009-03-21, 03:42:00,VALID,916.266,VALID,0,VALID,100,VALID,-0.101885,VALID,19.9993,VALID,37,VALID,0
2009-03-21, 03:43:00,VALID,916.276,VALID,0,VALID,100,VALID,-0.101885,VALID,19.9831,VALID,31,VALID,0
2009-03-21, 03:44:00,VALID,916.263,VALID,0,VALID,100,VALID,-0.101885,VALID,19.9701,VALID,27,VALID,0
2009-03-21, 03:45:00,VALID,916.251,VALID,0,VALID,100,VALID,-0.101885,VALID,19.9604,VALID,25,VALID,0
2009-03-21, 03:46:00,VALID,916.229,VALID,0,VALID,100,VALID,-0.135847,VALID,19.9344,VALID,29,VALID,0
2009-03-21, 03:47:00,VALID,916.218,VALID,0,VALID,100,VALID,-0.101885,VALID,19.9339,VALID,40,VALID,0.0378196
2009-03-21, 03:48:00,VALID,916.221,VALID,0,VALID,100,VALID,-0.101885,VALID,19.9504,VALID,47,VALID,0
2009-03-21, 03:49:00,VALID,916.216,VALID,0,VALID,100,VALID,-0.101885,VALID,19.9409,VALID,47,VALID,0
2009-03-21, 03:50:00,VALID,916.217,VALID,0,VALID,100,VALID,-0.101885,VALID,19.9274,VALID,47,VALID,0
2009-03-21, 03:51:00,VALID,916.21,VALID,0,VALID,100,VALID,-0.0849042,VALID,19.9407,VALID,47,VALID,0
2009-03-21, 03:52:00,VALID,916.199,VALID,0,VALID,100,VALID,-0.101885,VALID,19.9701,VALID,27,VALID,0
2009-03-21, 03:53:00,VALID,916.171,VALID,0,VALID,100,VALID,-0.0509425,VALID,19.9853,VALID,342,VALID,0
2009-03-21, 03:54:00,VALID,916.149,VALID,0,VALID,100,VALID,-0.0169808,VALID,19.9846,VALID,6,VALID,0
2009-03-21, 03:55:00,VALID,916.136,VALID,0,VALID,100,VALID,0,VALID,19.9746,VALID,11,VALID,0